N8XE-13 Weather Reports


Display with metric or nautical units.
time (UTC)temp
F
wind
direction
speed
MPH
gust
MPH
rain 1hr
in
rain 24hr
in
rain mn
in
humidity
%
barometer
mb
20260502233639 46 12 0.0 2.0 0.00 0.00 0.00 51
20260502233136 46 349 0.0 1.0 0.00 0.00 0.00 51
20260502232632 46 332 0.0 1.0 0.00 0.00 0.00 51
20260502232130 46 328 0.0 1.0 0.00 0.00 0.00 51
20260502231626 46 0 1.0 1.0 0.00 0.00 0.00 51
20260502231124 46 325 0.0 1.0 0.00 0.00 0.00 51
20260502230622 46 341 1.0 1.0 0.00 0.00 0.00 50
20260502230120 46 331 0.0 1.0 0.00 0.00 0.00 50
20260502225615 46 298 0.0 0.0 0.00 0.00 0.00 51
20260502225113 46 317 0.0 1.0 0.00 0.00 0.00 50
20260502224609 46 325 0.0 1.0 0.00 0.00 0.00 50
20260502224106 46 334 0.0 1.0 0.00 0.00 0.00 50
20260502223604 46 343 0.0 1.0 0.00 0.00 0.00 50
20260502223102 47 345 0.0 0.0 0.00 0.00 0.00 49
20260502222559 47 342 0.0 0.0 0.00 0.00 0.00 50
20260502222055 46 357 0.0 2.0 0.00 0.00 0.00 49
20260502221551 47 353 0.0 2.0 0.00 0.00 0.00 48
20260502221048 47 341 0.0 0.0 0.00 0.00 0.00 49
20260502220544 47 1 1.0 3.0 0.00 0.00 0.00 50
20260502220041 47 3 0.0 3.0 0.00 0.00 0.00 48
20260502215538 47 348 0.0 2.0 0.00 0.00 0.00 50
20260502215035 47 323 1.0 2.0 0.00 0.00 0.00 47
20260502214532 47 306 0.0 0.0 0.00 0.00 0.00 47
20260502214030 47 3 1.0 2.0 0.00 0.00 0.00 46
20260502213526 47 322 2.0 5.0 0.00 0.00 0.00 47
20260502213024 47 341 0.0 3.0 0.00 0.00 0.00 46
20260502212523 47 1 1.0 5.0 0.00 0.00 0.00 46
20260502212020 48 347 0.0 0.0 0.00 0.00 0.00 50
20260502211515 47 13 3.0 6.0 0.00 0.00 0.00 49
20260502211013 47 354 0.0 0.0 0.00 0.00 0.00 49
20260502210510 47 7 0.0 2.0 0.00 0.00 0.00 48
20260502210007 47 3 2.0 3.0 0.00 0.00 0.00 48
20260502205503 47 344 1.0 7.0 0.00 0.00 0.00 47
20260502205000 47 355 0.0 3.0 0.00 0.00 0.00 47
20260502204457 47 7 0.0 1.0 0.00 0.00 0.00 49
20260502203955 47 18 3.0 10.0 0.00 0.00 0.00 48
20260502203451 47 355 0.0 2.0 0.00 0.00 0.00 50
20260502202948 48 357 2.0 6.0 0.00 0.00 0.00 49
20260502202445 49 345 0.0 0.0 0.00 0.00 0.00 46
20260502201943 49 253 1.0 2.0 0.00 0.00 0.00 45
20260502201438 48 323 0.0 3.0 0.00 0.00 0.00 46
20260502200936 48 352 0.0 2.0 0.00 0.00 0.00 46
20260502200431 47 0 2.0 5.0 0.00 0.00 0.00 48
20260502195929 48 353 0.0 5.0 0.00 0.00 0.00 48
20260502195426 48 336 0.0 2.0 0.00 0.00 0.00 49
20260502194922 48 19 0.0 6.0 0.00 0.00 0.00 47
20260502194420 47 356 0.0 3.0 0.00 0.00 0.00 47
20260502193915 48 1 4.0 6.0 0.00 0.00 0.00 48
20260502193413 48 344 0.0 2.0 0.00 0.00 0.00 49
20260502192908 48 276 0.0 2.0 0.00 0.00 0.00 48
20260502192405 48 350 1.0 5.0 0.00 0.00 0.00 48
20260502191902 48 357 3.0 6.0 0.00 0.00 0.00 49
20260502191400 48 343 0.0 1.0 0.00 0.00 0.00 48
20260502190857 48 350 0.0 2.0 0.00 0.00 0.00 48
20260502190354 48 49 0.0 5.0 0.00 0.00 0.00 48
20260502185850 48 15 1.0 5.0 0.00 0.00 0.00 47
20260502185346 48 7 0.0 3.0 0.00 0.00 0.00 50
20260502184843 48 346 0.0 1.0 0.00 0.00 0.00 50
20260502184338 47 335 1.0 3.0 0.00 0.00 0.00 48
20260502183835 47 3 0.0 6.0 0.00 0.00 0.00 47
20260502183332 48 344 0.0 2.0 0.00 0.00 0.00 50
20260502182826 47 309 1.0 2.0 0.00 0.00 0.00 49
20260502182322 49 8 2.0 3.0 0.00 0.00 0.00 46
20260502181819 48 343 0.0 5.0 0.00 0.00 0.00 47
20260502181318 48 303 0.0 6.0 0.00 0.00 0.00 48
20260502180815 47 339 3.0 7.0 0.00 0.00 0.00 49
20260502180313 48 339 1.0 2.0 0.00 0.00 0.00 49
20260502170232 47 346 0.0 3.0 0.00 0.00 0.00 51
20260502164219 46 323 1.0 5.0 0.00 0.00 0.00 55
20260502163714 46 333 1.0 2.0 0.00 0.00 0.00 53
20260502163211 45 11 1.0 3.0 0.00 0.00 0.00 51
20260502162708 45 353 1.0 2.0 0.00 0.00 0.00 52
20260502162205 47 323 2.0 5.0 0.00 0.00 0.00 53
20260502161702 46 23 2.0 5.0 0.00 0.00 0.00 51
20260502161158 45 337 1.0 2.0 0.00 0.00 0.00 53
20260502160657 45 26 2.0 3.0 0.00 0.00 0.00 55
20260502160156 46 9 1.0 3.0 0.00 0.00 0.00 54
20260502152115 45 13 2.0 5.0 0.00 0.00 0.00 59
20260502151612 45 329 1.0 5.0 0.00 0.00 0.00 61
20260502151109 46 356 0.0 2.0 0.00 0.00 0.00 60
20260502150607 45 359 0.0 2.0 0.00 0.00 0.00 61
20260502130452 40 353 1.0 2.0 0.00 0.00 0.00 75
20260502123434 38 359 2.0 5.0 0.00 0.00 0.00 76
20260502122932 38 344 0.0 7.0 0.00 0.00 0.00 77
20260502122427 38 350 0.0 1.0 0.00 0.00 0.00 77
20260502121926 38 337 0.0 0.0 0.00 0.00 0.00 77
20260502121422 37 356 2.0 6.0 0.00 0.00 0.00 77
20260502120920 37 330 0.0 0.0 0.00 0.00 0.00 77
20260502120416 37 336 0.0 2.0 0.00 0.00 0.00 77
20260502115914 37 350 0.0 2.0 0.00 0.00 0.00 77
20260502115411 37 359 1.0 2.0 0.00 0.00 0.00 78
20260502114906 37 312 0.0 1.0 0.00 0.00 0.00 78
20260502114404 36 290 0.0 1.0 0.00 0.00 0.00 79
20260502113901 36 339 0.0 1.0 0.00 0.00 0.00 80
20260502113358 36 342 0.0 0.0 0.00 0.00 0.00 81
20260502112856 35 307 0.0 0.0 0.00 0.00 0.00 82
20260502112354 35 349 0.0 0.0 0.00 0.00 0.00 83
20260502111851 35 312 0.0 0.0 0.00 0.00 0.00 83
20260502111348 35 317 0.0 0.0 0.00 0.00 0.00 83
20260502110846 34 315 0.0 0.0 0.00 0.00 0.00 83
20260502110344 34 295 0.0 0.0 0.00 0.00 0.00 84
20260502105841 34 308 0.0 0.0 0.00 0.00 0.00 83
20260502105338 34 324 0.0 0.0 0.00 0.00 0.00 83
20260502104835 34 329 0.0 0.0 0.00 0.00 0.00 83
20260502104333 34 325 0.0 0.0 0.00 0.00 0.00 83
20260502103830 34 329 0.0 0.0 0.00 0.00 0.00 83
20260502103327 34 328 0.0 0.0 0.00 0.00 0.00 83
20260502102824 34 335 0.0 0.0 0.00 0.00 0.00 84
20260502102320 34 330 0.0 0.0 0.00 0.00 0.00 84
20260502101818 34 334 0.0 0.0 0.00 0.00 0.00 84
20260502101316 34 324 0.0 0.0 0.00 0.00 0.00 84
20260502100814 34 326 0.0 0.0 0.00 0.00 0.00 84
20260502100313 35 332 0.0 0.0 0.00 0.00 0.00 84
20260502091247 34 333 0.0 0.0 0.00 0.00 0.00 86
20260502090744 34 339 0.0 0.0 0.00 0.00 0.00 86
20260502090241 35 321 0.0 0.0 0.00 0.00 0.00 85
20260502071136 36 316 0.0 0.0 0.00 0.00 0.00 91
20260502070634 36 324 0.0 0.0 0.00 0.00 0.00 91
20260502070132 36 323 0.0 0.0 0.00 0.00 0.00 91
20260502065630 36 328 0.0 0.0 0.00 0.00 0.00 92
20260502065127 36 329 0.0 0.0 0.00 0.00 0.00 92
20260502064626 36 326 0.0 0.0 0.00 0.00 0.00 92
20260502064122 36 322 0.0 0.0 0.00 0.00 0.00 92
20260502063620 36 321 0.0 0.0 0.00 0.00 0.00 93
20260502063118 36 317 0.0 0.0 0.00 0.00 0.00 93
20260502062615 36 327 0.0 0.0 0.00 0.00 0.00 94
20260502062112 36 319 0.0 0.0 0.00 0.00 0.00 94
20260502061610 36 320 0.0 0.0 0.00 0.00 0.00 94
20260502061108 36 315 0.0 0.0 0.00 0.00 0.00 94
20260502060608 37 316 0.0 0.0 0.00 0.00 0.00 94
20260502060105 37 315 0.0 0.0 0.00 0.00 0.00 94
20260502055603 37 320 0.0 0.0 0.00 0.00 0.00 94
20260502055101 37 320 0.0 0.0 0.00 0.00 0.00 94
20260502054559 37 312 0.0 0.0 0.00 0.00 0.00 94
20260502054055 37 320 0.0 0.0 0.00 0.00 0.00 94
20260502053553 37 317 0.0 0.0 0.00 0.00 0.00 94
20260502053050 37 320 0.0 0.0 0.00 0.00 0.00 94
20260502052549 37 319 0.0 0.0 0.00 0.00 0.00 94
20260502052046 37 321 0.0 0.0 0.00 0.00 0.00 94
20260502051544 37 321 0.0 0.0 0.00 0.00 0.00 94
20260502051042 37 323 0.0 0.0 0.00 0.00 0.00 94
20260502050538 37 319 0.0 0.0 0.00 0.00 0.00 94
20260502050035 38 319 0.0 0.0 0.00 0.00 0.00 94
20260502045531 37 312 0.0 0.0 0.00 0.00 0.00 94
20260502045029 38 321 0.0 0.0 0.00 0.00 0.00 94
20260502044525 38 313 0.0 0.0 0.00 0.00 0.00 94
20260502044022 38 316 0.0 0.0 0.00 0.00 0.00 94
20260502043520 38 321 0.0 0.0 0.00 0.00 0.00 94
20260502043015 38 320 0.0 0.0 0.00 0.00 0.00 94
20260502042511 38 292 0.0 0.0 0.00 0.00 0.00 94
20260502042009 38 321 0.0 0.0 0.00 0.00 0.00 94
20260502041506 38 315 0.0 0.0 0.00 0.00 0.00 94
20260502041003 39 298 0.0 0.0 0.00 0.00 0.00 94
20260502040459 38 262 0.0 0.0 0.00 0.00 0.00 94
20260502035956 38 320 0.0 0.0 0.00 0.10 0.10 94
20260502035451 38 313 0.0 0.0 0.00 0.10 0.10 93
20260502034950 38 305 0.0 0.0 0.00 0.10 0.10 93
20260502034448 38 316 0.0 0.0 0.00 0.10 0.10 93
20260502033946 38 320 0.0 0.0 0.00 0.10 0.10 93
20260502033443 38 325 0.0 0.0 0.00 0.10 0.10 93
20260502032940 38 321 0.0 0.0 0.00 0.10 0.10 93
20260502032436 38 321 0.0 0.0 0.00 0.10 0.10 93
20260502031934 39 318 0.0 0.0 0.00 0.10 0.10 93
20260502031432 39 317 0.0 0.0 0.00 0.10 0.10 92
20260502030930 39 321 0.0 0.0 0.00 0.10 0.10 92
20260502030428 39 313 0.0 0.0 0.00 0.10 0.10 92
20260502025926 39 306 0.0 0.0 0.00 0.10 0.10 92
20260502025422 39 341 0.0 0.0 0.00 0.10 0.10 91
20260502024920 40 336 0.0 0.0 0.00 0.10 0.10 91
20260502024418 40 328 0.0 0.0 0.00 0.10 0.10 91
20260502023916 40 347 0.0 0.0 0.00 0.10 0.10 91
20260502023413 40 345 0.0 0.0 0.00 0.10 0.10 91
20260502022911 39 333 0.0 0.0 0.00 0.10 0.10 90
20260502022407 40 332 0.0 0.0 0.00 0.10 0.10 90
20260502021904 40 332 0.0 0.0 0.00 0.10 0.10 90
20260502021401 40 335 0.0 0.0 0.00 0.10 0.10 89
20260502020858 40 340 0.0 0.0 0.00 0.10 0.10 89
20260502020356 40 322 0.0 0.0 0.00 0.10 0.10 89
20260502015853 41 319 0.0 0.0 0.00 0.10 0.10 88
20260502015350 41 344 0.0 0.0 0.00 0.10 0.10 88
20260502014847 41 347 0.0 0.0 0.00 0.10 0.10 88
20260502014344 41 331 0.0 0.0 0.00 0.10 0.10 87
20260502013840 41 329 0.0 0.0 0.00 0.10 0.10 87
20260502013336 42 331 0.0 0.0 0.00 0.10 0.10 86
20260502012832 42 334 0.0 0.0 0.00 0.10 0.10 84
20260502012331 43 334 0.0 0.0 0.00 0.10 0.10 83
20260502011827 43 341 0.0 0.0 0.00 0.10 0.10 81
20260502011323 43 349 0.0 0.0 0.00 0.10 0.10 81
20260502010821 44 1 0.0 0.0 0.00 0.10 0.10 81
20260502010317 44 350 0.0 0.0 0.07 0.10 0.10 82
20260502005814 44 355 1.0 2.0 0.07 0.10 0.10 82
20260502005312 45 15 0.0 2.0 0.00 0.09 0.09 80
20260502004809 46 252 0.0 3.0 0.00 0.09 0.09 75
20260502004305 46 297 0.0 0.0 0.00 0.09 0.09 74
20260502003803 48 306 0.0 1.0 0.00 0.09 0.09 70
20260502003300 48 336 0.0 0.0 0.00 0.09 0.09 68
20260502002755 48 355 0.0 1.0 0.00 0.09 0.09 68
20260502002253 48 356 0.0 1.0 0.00 0.09 0.09 68
20260502001750 48 324 0.0 0.0 0.00 0.09 0.09 69
20260502001248 48 309 0.0 0.0 0.00 0.09 0.09 69
20260502000746 48 310 0.0 0.0 0.00 0.09 0.09 68
20260502000244 48 338 0.0 0.0 0.00 0.09 0.09 68
20260501235738 48 349 0.0 0.0 0.00 0.09 0.09 67
20260501235235 48 347 0.0 1.0 0.00 0.09 0.09 66
20260501234731 48 335 0.0 0.0 0.00 0.09 0.09 67
20260501234228 48 322 0.0 0.0 0.00 0.09 0.09 68